www.cux-wetter.de
Wetterdaten: Sonntag, 25.08.2013
Datum Zeit Temp. A. Feuchte A. Luftdruck Regen Wind Richtung Richtung Sonnenschein Solar Taupunkt Windchill Windben
25.08.2013 00:00 18,0 C 72 % 1012,5 hPa 0,0 l/m 18,9 km/h (3 Bft) S 180 0 min 0 W/m 12,9 C 13,9 C 18,9 km/h (3 Bft)
25.08.2013 00:15 17,9 C 73 % 1012,5 hPa 0,0 l/m 19,9 km/h (4 Bft) O-SO 120 0 min 0 W/m 13,0 C 13,5 C 19,9 km/h (4 Bft)
25.08.2013 00:30 17,9 C 74 % 1012,5 hPa 0,0 l/m 19,5 km/h (3 Bft) S-SO 160 0 min 0 W/m 13,2 C 13,6 C 19,5 km/h (3 Bft)
25.08.2013 00:45 17,8 C 74 % 1012,5 hPa 0,0 l/m 20,8 km/h (4 Bft) S-SO 150 0 min 0 W/m 13,1 C 13,2 C 20,8 km/h (4 Bft)
25.08.2013 01:00 17,8 C 75 % 1012,5 hPa 0,0 l/m 21,8 km/h (4 Bft) SO 145 0 min 0 W/m 13,3 C 13,0 C 21,8 km/h (4 Bft)
25.08.2013 01:15 17,7 C 75 % 1013,5 hPa 0,0 l/m 24,2 km/h (4 Bft) SO 145 0 min 0 W/m 13,2 C 12,4 C 24,2 km/h (4 Bft)
25.08.2013 01:30 17,8 C 75 % 1012,5 hPa 0,0 l/m 21,6 km/h (4 Bft) SO 140 0 min 0 W/m 13,3 C 13,0 C 21,6 km/h (4 Bft)
25.08.2013 01:45 17,8 C 75 % 1013,5 hPa 0,0 l/m 19,7 km/h (3 Bft) S-SO 150 0 min 0 W/m 13,3 C 13,4 C 19,7 km/h (3 Bft)
25.08.2013 02:00 17,7 C 75 % 1013,5 hPa 0,0 l/m 19,0 km/h (3 Bft) SO 125 0 min 0 W/m 13,2 C 13,5 C 19,0 km/h (3 Bft)
25.08.2013 02:15 17,6 C 75 % 1013,5 hPa 0,0 l/m 17,4 km/h (3 Bft) S-SO 165 0 min 0 W/m 13,1 C 13,7 C 17,4 km/h (3 Bft)
25.08.2013 02:30 17,5 C 76 % 1012,5 hPa 0,0 l/m 20,8 km/h (4 Bft) O-SO 105 0 min 0 W/m 13,2 C 12,8 C 20,8 km/h (4 Bft)
25.08.2013 02:45 17,4 C 76 % 1012,5 hPa 0,0 l/m 18,9 km/h (3 Bft) S-SO 165 0 min 0 W/m 13,1 C 13,1 C 18,9 km/h (3 Bft)
25.08.2013 03:00 17,4 C 76 % 1012,5 hPa 0,0 l/m 15,6 km/h (3 Bft) S-SO 155 0 min 0 W/m 13,1 C 13,9 C 15,6 km/h (3 Bft)
25.08.2013 03:15 17,3 C 76 % 1013,5 hPa 0,0 l/m 23,0 km/h (4 Bft) S-SO 150 0 min 0 W/m 13,0 C 12,1 C 23,0 km/h (4 Bft)
25.08.2013 03:30 17,2 C 77 % 1012,5 hPa 0,0 l/m 21,5 km/h (4 Bft) S-SO 150 0 min 0 W/m 13,1 C 12,3 C 21,5 km/h (4 Bft)
25.08.2013 03:45 17,1 C 77 % 1012,5 hPa 0,0 l/m 14,2 km/h (3 Bft) SO 140 0 min 0 W/m 13,0 C 14,0 C 14,2 km/h (3 Bft)
25.08.2013 04:00 17,0 C 78 % 1012,5 hPa 0,0 l/m 13,1 km/h (3 Bft) SO 135 0 min 0 W/m 13,1 C 14,2 C 13,1 km/h (3 Bft)
25.08.2013 04:15 16,9 C 78 % 1012,5 hPa 0,0 l/m 15,6 km/h (3 Bft) SO 145 0 min 0 W/m 13,0 C 13,3 C 15,6 km/h (3 Bft)
25.08.2013 04:30 16,8 C 79 % 1012,5 hPa 0,0 l/m 15,3 km/h (3 Bft) O-SO 115 0 min 0 W/m 13,1 C 13,3 C 15,3 km/h (3 Bft)
25.08.2013 04:45 16,8 C 79 % 1012,5 hPa 0,0 l/m 18,1 km/h (3 Bft) O-SO 120 0 min 0 W/m 13,1 C 12,5 C 18,1 km/h (3 Bft)
25.08.2013 05:00 16,8 C 79 % 1012,5 hPa 0,0 l/m 15,5 km/h (3 Bft) O-SO 120 0 min 0 W/m 13,1 C 13,2 C 15,5 km/h (3 Bft)
25.08.2013 05:15 16,8 C 80 % 1012,5 hPa 0,0 l/m 15,1 km/h (3 Bft) SO 130 0 min 0 W/m 13,3 C 13,3 C 15,1 km/h (3 Bft)
25.08.2013 05:30 16,8 C 80 % 1012,5 hPa 0,0 l/m 15,0 km/h (3 Bft) O-SO 110 0 min 0 W/m 13,3 C 13,4 C 15,0 km/h (3 Bft)
25.08.2013 05:45 16,7 C 80 % 1012,5 hPa 0,0 l/m 21,5 km/h (4 Bft) S-SO 155 0 min 0 W/m 13,2 C 11,6 C 21,5 km/h (4 Bft)
25.08.2013 06:00 16,7 C 81 % 1012,5 hPa 0,0 l/m 16,0 km/h (3 Bft) S-SO 150 0 min 0 W/m 13,4 C 13,0 C 16,0 km/h (3 Bft)
25.08.2013 06:15 16,6 C 81 % 1012,5 hPa 0,0 l/m 16,1 km/h (3 Bft) SO 125 0 min 0 W/m 13,3 C 12,8 C 16,1 km/h (3 Bft)
25.08.2013 06:30 16,6 C 81 % 1012,5 hPa 0,0 l/m 16,3 km/h (3 Bft) SO 145 0 min 0 W/m 13,3 C 12,8 C 16,3 km/h (3 Bft)
25.08.2013 06:45 16,6 C 81 % 1012,5 hPa 0,0 l/m 14,8 km/h (3 Bft) SO 145 0 min 0 W/m 13,3 C 13,2 C 14,8 km/h (3 Bft)
25.08.2013 07:00 16,6 C 81 % 1013,5 hPa 0,0 l/m 15,0 km/h (3 Bft) SO 135 0 min 0 W/m 13,3 C 13,1 C 15,0 km/h (3 Bft)
25.08.2013 07:15 16,6 C 81 % 1013,5 hPa 0,0 l/m 14,5 km/h (3 Bft) S-SO 165 0 min 0 W/m 13,3 C 13,3 C 14,5 km/h (3 Bft)
25.08.2013 07:30 16,8 C 81 % 1013,5 hPa 0,0 l/m 12,3 km/h (2 Bft) SO 125 0 min 0 W/m 13,5 C 14,2 C 12,3 km/h (2 Bft)
25.08.2013 07:45 16,8 C 81 % 1013,5 hPa 0,0 l/m 15,0 km/h (3 Bft) SO 140 0 min 0 W/m 13,5 C 13,4 C 15,0 km/h (3 Bft)
25.08.2013 08:00 16,9 C 81 % 1013,5 hPa 0,0 l/m 14,8 km/h (3 Bft) SO 145 0 min 0 W/m 13,6 C 13,6 C 14,8 km/h (3 Bft)
25.08.2013 08:15 17,0 C 82 % 1013,5 hPa 0,0 l/m 15,5 km/h (3 Bft) O-SO 115 0 min 0 W/m 13,9 C 13,5 C 15,5 km/h (3 Bft)
25.08.2013 08:30 17,1 C 82 % 1013,5 hPa 0,0 l/m 18,0 km/h (3 Bft) SO 130 0 min 0 W/m 14,0 C 12,9 C 18,0 km/h (3 Bft)
25.08.2013 08:45 17,2 C 81 % 1013,5 hPa 0,0 l/m 15,3 km/h (3 Bft) SO 135 0 min 0 W/m 13,9 C 13,8 C 15,3 km/h (3 Bft)
25.08.2013 09:00 17,4 C 81 % 1013,5 hPa 0,0 l/m 15,8 km/h (3 Bft) O-SO 115 0 min 0 W/m 14,1 C 13,9 C 15,8 km/h (3 Bft)
25.08.2013 09:15 17,6 C 80 % 1013,5 hPa 0,0 l/m 18,1 km/h (3 Bft) O-SO 120 0 min 0 W/m 14,1 C 13,5 C 18,1 km/h (3 Bft)
25.08.2013 09:30 17,7 C 80 % 1013,5 hPa 0,0 l/m 15,6 km/h (3 Bft) O-SO 105 0 min 0 W/m 14,2 C 14,3 C 15,6 km/h (3 Bft)
25.08.2013 09:45 17,9 C 80 % 1013,5 hPa 0,0 l/m 14,2 km/h (3 Bft) SO 135 0 min 0 W/m 14,4 C 14,9 C 14,2 km/h (3 Bft)
25.08.2013 10:00 18,2 C 79 % 1013,5 hPa 0,0 l/m 16,3 km/h (3 Bft) O-SO 115 0 min 0 W/m 14,5 C 14,7 C 16,3 km/h (3 Bft)
25.08.2013 10:15 18,5 C 78 % 1014,5 hPa 0,0 l/m 15,3 km/h (3 Bft) SO 135 0 min 0 W/m 14,6 C 15,4 C 15,3 km/h (3 Bft)
25.08.2013 10:30 19,2 C 78 % 1014,5 hPa 0,0 l/m 17,6 km/h (3 Bft) SO 140 0 min 0 W/m 15,3 C 15,7 C 17,6 km/h (3 Bft)
25.08.2013 10:45 20,2 C 75 % 1013,5 hPa 0,0 l/m 14,4 km/h (3 Bft) SO 130 0 min 0 W/m 15,6 C 17,6 C 14,4 km/h (3 Bft)
25.08.2013 11:00 21,0 C 72 % 1014,5 hPa 0,0 l/m 13,9 km/h (3 Bft) SO 135 0 min 0 W/m 15,8 C 18,7 C 13,9 km/h (3 Bft)
25.08.2013 11:15 21,6 C 69 % 1014,5 hPa 0,0 l/m 14,0 km/h (3 Bft) SO 125 0 min 0 W/m 15,7 C 19,4 C 14,0 km/h (3 Bft)
25.08.2013 11:30 22,2 C 67 % 1014,5 hPa 0,0 l/m 17,0 km/h (3 Bft) SO 125 0 min 0 W/m 15,8 C 19,5 C 17,0 km/h (3 Bft)
25.08.2013 11:45 22,7 C 66 % 1014,5 hPa 0,0 l/m 20,5 km/h (4 Bft) SO 135 0 min 0 W/m 16,0 C 19,6 C 20,5 km/h (4 Bft)
25.08.2013 12:00 23,2 C 64 % 1014,5 hPa 0,0 l/m 18,5 km/h (3 Bft) SO 125 0 min 0 W/m 16,0 C 20,6 C 18,5 km/h (3 Bft)
25.08.2013 12:15 23,7 C 63 % 1014,5 hPa 0,0 l/m 19,1 km/h (3 Bft) S-SO 150 0 min 0 W/m 16,2 C 21,1 C 19,1 km/h (3 Bft)
25.08.2013 12:30 24,1 C 60 % 1014,5 hPa 0,0 l/m 27,5 km/h (5 Bft) SO 135 0 min 0 W/m 15,8 C 20,7 C 27,5 km/h (5 Bft)
25.08.2013 12:45 24,4 C 58 % 1014,5 hPa 0,0 l/m 20,3 km/h (4 Bft) SO 130 0 min 0 W/m 15,6 C 21,9 C 20,3 km/h (4 Bft)
25.08.2013 13:00 24,6 C 56 % 1014,5 hPa 0,0 l/m 23,8 km/h (4 Bft) SO 140 0 min 0 W/m 15,2 C 21,7 C 23,8 km/h (4 Bft)
25.08.2013 13:15 24,3 C 57 % 1014,5 hPa 0,0 l/m 17,6 km/h (3 Bft) SO 140 0 min 0 W/m 15,2 C 22,1 C 17,6 km/h (3 Bft)
25.08.2013 13:30 25,0 C 54 % 1014,5 hPa 0,0 l/m 22,0 km/h (4 Bft) SO 140 0 min 0 W/m 15,0 C 22,4 C 22,0 km/h (4 Bft)
25.08.2013 13:45 25,7 C 52 % 1014,5 hPa 0,0 l/m 24,0 km/h (4 Bft) SO 135 0 min 0 W/m 15,1 C 23,2 C 24,0 km/h (4 Bft)
25.08.2013 14:00 25,9 C 51 % 1014,5 hPa 0,0 l/m 22,8 km/h (4 Bft) SO 125 0 min 0 W/m 15,0 C 23,6 C 22,8 km/h (4 Bft)
25.08.2013 14:15 25,8 C 53 % 1014,5 hPa 0,0 l/m 18,6 km/h (3 Bft) S-SO 155 0 min 0 W/m 15,5 C 23,8 C 18,6 km/h (3 Bft)
25.08.2013 14:30 25,7 C 51 % 1014,5 hPa 0,0 l/m 18,1 km/h (3 Bft) SO 135 0 min 0 W/m 14,8 C 23,8 C 18,1 km/h (3 Bft)
25.08.2013 14:45 25,3 C 52 % 1014,5 hPa 0,0 l/m 17,5 km/h (3 Bft) S 170 0 min 0 W/m 14,7 C 23,3 C 17,5 km/h (3 Bft)
25.08.2013 15:00 25,7 C 51 % 1014,5 hPa 0,0 l/m 14,3 km/h (3 Bft) SO 125 0 min 0 W/m 14,8 C 24,3 C 14,3 km/h (3 Bft)
25.08.2013 15:15 26,0 C 49 % 1014,5 hPa 0,0 l/m 20,9 km/h (4 Bft) O-SO 115 0 min 0 W/m 14,4 C 23,9 C 20,9 km/h (4 Bft)
25.08.2013 15:30 26,1 C 48 % 1014,5 hPa 0,0 l/m 18,1 km/h (3 Bft) SO 145 0 min 0 W/m 14,2 C 24,3 C 18,1 km/h (3 Bft)
25.08.2013 15:45 26,1 C 46 % 1014,5 hPa 0,0 l/m 21,6 km/h (4 Bft) SO 140 0 min 0 W/m 13,6 C 23,9 C 21,6 km/h (4 Bft)
25.08.2013 16:00 26,0 C 47 % 1014,5 hPa 0,0 l/m 14,6 km/h (3 Bft) SO 130 0 min 0 W/m 13,8 C 24,6 C 14,6 km/h (3 Bft)
25.08.2013 16:15 25,9 C 50 % 1014,5 hPa 0,0 l/m 20,6 km/h (4 Bft) SO 130 0 min 0 W/m 14,7 C 23,8 C 20,6 km/h (4 Bft)
25.08.2013 16:30 25,9 C 51 % 1014,5 hPa 0,0 l/m 17,5 km/h (3 Bft) O-SO 120 0 min 0 W/m 15,0 C 24,1 C 17,5 km/h (3 Bft)
25.08.2013 16:45 25,6 C 51 % 1014,5 hPa 0,0 l/m 17,1 km/h (3 Bft) O-SO 115 0 min 0 W/m 14,7 C 23,8 C 17,1 km/h (3 Bft)
25.08.2013 17:00 25,4 C 51 % 1014,5 hPa 0,0 l/m 15,8 km/h (3 Bft) SO 130 0 min 0 W/m 14,5 C 23,7 C 15,8 km/h (3 Bft)
25.08.2013 17:15 25,0 C 51 % 1014,5 hPa 0,0 l/m 17,0 km/h (3 Bft) O-SO 105 0 min 0 W/m 14,1 C 23,0 C 17,0 km/h (3 Bft)
25.08.2013 17:30 24,7 C 49 % 1014,5 hPa 0,0 l/m 18,3 km/h (3 Bft) O 100 0 min 0 W/m 13,3 C 22,5 C 18,3 km/h (3 Bft)
25.08.2013 17:45 24,4 C 53 % 1014,5 hPa 0,0 l/m 21,8 km/h (4 Bft) O 100 0 min 0 W/m 14,2 C 21,7 C 21,8 km/h (4 Bft)
25.08.2013 18:00 24,0 C 55 % 1014,5 hPa 0,0 l/m 22,5 km/h (4 Bft) O-SO 120 0 min 0 W/m 14,4 C 21,1 C 22,5 km/h (4 Bft)
25.08.2013 18:15 23,6 C 57 % 1014,5 hPa 0,0 l/m 21,8 km/h (4 Bft) O-SO 110 0 min 0 W/m 14,6 C 20,6 C 21,8 km/h (4 Bft)
25.08.2013 18:30 23,3 C 58 % 1014,5 hPa 0,0 l/m 23,3 km/h (4 Bft) O-SO 110 0 min 0 W/m 14,6 C 20,0 C 23,3 km/h (4 Bft)
25.08.2013 18:45 22,8 C 58 % 1015,5 hPa 0,0 l/m 19,6 km/h (3 Bft) SO 125 0 min 0 W/m 14,1 C 19,9 C 19,6 km/h (3 Bft)
25.08.2013 19:00 22,4 C 58 % 1015,5 hPa 0,0 l/m 21,8 km/h (4 Bft) O-SO 115 0 min 0 W/m 13,7 C 19,0 C 21,8 km/h (4 Bft)
25.08.2013 19:15 22,1 C 58 % 1015,5 hPa 0,0 l/m 18,6 km/h (3 Bft) SO 135 0 min 0 W/m 13,4 C 19,1 C 18,6 km/h (3 Bft)
25.08.2013 19:30 21,7 C 59 % 1015,5 hPa 0,0 l/m 18,8 km/h (3 Bft) SO 130 0 min 0 W/m 13,3 C 18,6 C 18,8 km/h (3 Bft)
25.08.2013 19:45 21,2 C 58 % 1015,5 hPa 0,0 l/m 20,6 km/h (4 Bft) O-SO 120 0 min 0 W/m 12,6 C 17,7 C 20,6 km/h (4 Bft)
25.08.2013 20:00 21,0 C 58 % 1015,5 hPa 0,0 l/m 23,6 km/h (4 Bft) O-SO 115 0 min 0 W/m 12,4 C 16,9 C 23,6 km/h (4 Bft)
25.08.2013 20:15 20,6 C 60 % 1016,5 hPa 0,0 l/m 17,5 km/h (3 Bft) O-SO 115 0 min 0 W/m 12,6 C 17,4 C 17,5 km/h (3 Bft)
25.08.2013 20:30 20,3 C 60 % 1016,5 hPa 0,0 l/m 17,7 km/h (3 Bft) O 100 0 min 0 W/m 12,3 C 17,0 C 17,7 km/h (3 Bft)
25.08.2013 20:45 20,0 C 61 % 1016,5 hPa 0,0 l/m 20,1 km/h (4 Bft) SO 130 0 min 0 W/m 12,2 C 16,2 C 20,1 km/h (4 Bft)
25.08.2013 21:00 19,8 C 62 % 1016,5 hPa 0,0 l/m 25,6 km/h (4 Bft) SO 125 0 min 0 W/m 12,3 C 15,0 C 25,6 km/h (4 Bft)
25.08.2013 21:15 19,6 C 62 % 1016,5 hPa 0,0 l/m 20,1 km/h (4 Bft) O-NO 65 0 min 0 W/m 12,1 C 15,7 C 20,1 km/h (4 Bft)
25.08.2013 21:30 19,3 C 62 % 1016,5 hPa 0,0 l/m 14,6 km/h (3 Bft) O 95 0 min 0 W/m 11,8 C 16,5 C 14,6 km/h (3 Bft)
25.08.2013 21:45 19,0 C 64 % 1017,5 hPa 0,0 l/m 18,5 km/h (3 Bft) O-SO 120 0 min 0 W/m 12,0 C 15,2 C 18,5 km/h (3 Bft)
25.08.2013 22:00 18,8 C 64 % 1017,5 hPa 0,0 l/m 17,5 km/h (3 Bft) SO 125 0 min 0 W/m 11,8 C 15,2 C 17,5 km/h (3 Bft)
25.08.2013 22:15 18,6 C 65 % 1017,5 hPa 0,0 l/m 15,0 km/h (3 Bft) SO 125 0 min 0 W/m 11,9 C 15,6 C 15,0 km/h (3 Bft)
25.08.2013 22:30 18,3 C 66 % 1017,5 hPa 0,0 l/m 21,1 km/h (4 Bft) O-SO 115 0 min 0 W/m 11,8 C 13,8 C 21,1 km/h (4 Bft)
25.08.2013 22:45 18,1 C 66 % 1017,5 hPa 0,0 l/m 18,0 km/h (3 Bft) S-SO 150 0 min 0 W/m 11,6 C 14,2 C 18,0 km/h (3 Bft)
25.08.2013 23:00 18,0 C 66 % 1017,5 hPa 0,0 l/m 13,9 km/h (3 Bft) SO 140 0 min 0 W/m 11,6 C 15,1 C 13,9 km/h (3 Bft)
25.08.2013 23:15 17,8 C 67 % 1017,5 hPa 0,0 l/m 18,4 km/h (3 Bft) SO 140 0 min 0 W/m 11,6 C 13,7 C 18,4 km/h (3 Bft)
25.08.2013 23:30 17,6 C 67 % 1017,5 hPa 0,0 l/m 21,8 km/h (4 Bft) S 180 0 min 0 W/m 11,4 C 12,7 C 21,8 km/h (4 Bft)
25.08.2013 23:45 17,5 C 68 % 1017,5 hPa 0,0 l/m 17,3 km/h (3 Bft) SO 125 0 min 0 W/m 11,5 C 13,6 C 17,3 km/h (3 Bft)
_ Min-Zeit 06:15 15:45 00:00 - 07:30 - - - - 23:30 05:45 07:30
Minimum _ 16,6 C 46 % 1012,5 hPa - 12,3 km/h (2 Bft) - - - - 11,4 C 11,6 C 12,3 km/h (2 Bft)
_ Max-Zeit 15:30 08:15 21:45 00:00 12:30 - - 00:00 00:00 12:15 16:00 12:30
Maximum _ 26,1 C 82 % 1017,5 hPa 0,0 l/m 27,5 km/h
SO (5 Bft)
- - 0 min 0 W/m 16,2 C 24,6 C 27,5 km/h
SO (5 Bft)
Durchschnitt _ 20,2 C 67 % 1014,3 hPa #0,0 l/m 18,3 km/h (3 Bft) SO - #0 min. 0 W/m 13,7 C 16,9 C 18,3 km/h (3 Bft)
copyright by Holger Just